Вернуться в каталог

O3B FM14

АктивенСвязьMEO
NORAD 43233·PAYLOAD·🇱🇺 Luxembourg

Запущен Mar 9, 2018 с Guiana Space Centre

Loading…

Ближайшие Пролёты (ближайшие 24 часа)

TLE

СвежийSource: CelesTrak SupGP

Эпоха: Sep 14, 2026, 16:59 UTC

1 43233C 18024C   26257.70833333  .00000000  00000+0  00000+0 0  2577
2 43233   0.0584   1.2174 0002830 171.1514 136.2616  5.00115978    14

Отслеживайте O3B FM14 в реальном времени с AllMySat

Download on the App Store